Flag for Canada Weather past 2 weeks in Cape Dorset, Nunavut Territory, Canada

Now
-4 °F

Sunny.


Feels Like: -16 °F
Forecast: -4 / 3 °F
Wind: 6 mph from West

Location: Cape Dorset

Current Time: Dec 18, 2014 at 12:58:36 PM

Latest Report: Dec 18, 2014 at 12:00 PM


Visibility: 15 mi

Pressure: 29.91 "Hg

Humidity: 71%

Dew point: -11 °F

Location of Cape DorsetLocation

Historic Weather in Cape Dorset — Graph

°F

Cape Dorset temperature yesterday

Maximum temperature yesterday: 16 °F (at 4:00 AM)
Minimum temperature yesterday: 10 °F (at 8:51 PM)
Average temperature yesterday: 13 °F

Past Weeks' High & Low Weather Summary

 TemperatureHumidityPressure
High23 °F (Dec 11, 10:52 AM)100% (Dec 13, 8:00 AM)30.36 "Hg (Dec 13, 8:00 AM)
Low-18 °F (Dec 8, 8:00 PM)65% (Dec 14, 4:02 PM)29.49 "Hg (Dec 11, 6:58 AM)
Average1 °F82%29.85 "Hg
* Reported Dec 3 11:00 AM — Dec 18 11:00 AM, Cape Dorset, Weather by CustomWeather, © 2014

Note: Actual official high and low records may vary slightly from our data, if they occured in-between our weather recording intervals... More about our weather records

Advertising

Cape Dorset weather history for previous 24 hours

 ConditionsComfort  
Time TempWeatherWind HumidityBarometerVisibility
11:00 AM
Dec 18
-4 °FSunny.6 mph77%29.89 "Hg15 mi
10:00 AM-4 °FPassing clouds.3 mph84%29.88 "Hg15 mi
9:00 AM-6 °FPassing clouds.2 mph84%29.86 "Hg15 mi
8:00 AM-6 °FClear.6 mph77%29.84 "Hg15 mi
7:00 AM-4 °FClear.6 mph77%29.83 "Hg15 mi
6:00 AM-4 °FClear.10 mph77%29.81 "Hg9 mi
5:00 AM-2 °FClear.7 mph77%29.80 "Hg9 mi
4:00 AM0 °FClear.5 mph78%29.78 "Hg9 mi
3:00 AM3 °FPassing clouds.2 mph78%29.76 "Hg9 mi
2:00 AM5 °FMostly cloudy.8 mph78%29.74 "Hg9 mi
1:00 AM10 °FOvercast.13 mph79%29.72 "Hg9 mi
12:50 AM10 °FMostly cloudy.13 mph79%29.72 "Hg9 mi
12:00 AM10 °FLight snow. Overcast.10 mph92%29.71 "Hg7 mi
11:00 PM
Dec 17
10 °FLight snow. Overcast.12 mph92%29.71 "Hg9 mi
10:00 PM10 °FLight snow. Mostly cloudy.13 mph85%29.69 "Hg9 mi
9:00 PM10 °FLight snow. Mostly cloudy.14 mph92%29.69 "Hg2 mi
8:51 PM10 °FLight snow. Overcast.14 mph92%29.70 "Hg2 mi
8:00 PM12 °FLight snow. Overcast.17 mph92%29.69 "Hg9 mi
7:00 PM12 °FLight snow. Overcast.21 mph92%29.70 "Hg5 mi
6:00 PM12 °FLight snow. Overcast.23 mph85%29.72 "Hg4 mi
5:03 PM12 °FLight snow. Low clouds.20 mph92%29.72 "Hg2 mi
4:00 PM14 °FLight snow. Overcast.20 mph92%29.72 "Hg8 mi
3:00 PM14 °FLight snow. Overcast.20 mph85%29.74 "Hg15 mi
2:00 PM14 °FLight snow. Overcast.14 mph85%29.75 "Hg15 mi
1:00 PM14 °FLight snow. Overcast.22 mph85%29.74 "Hg4 mi
12:00 PM14 °FLight snow. Overcast.25 mph85%29.75 "Hg3 mi
Weather by CustomWeather, © 2014

See weather overviewHow to use our weather pages